Regional Weather Roundup
Issued by NWS

Home | Current Version | Previous Version | Graphics & Text | Print | Product List | Glossary On
Versions: 1 2 3 4 5 6 7 8 9 10 11 12 13 14 15 16 17 18 19 20 21 22 23 24 25 26 27 28 29 30 31 32 33 34 35 36 37 38 39 40 41 42 43 44 45 46 47 48 49 50
000
ASUS43 KOAX 271110
RWRNE

WEATHER ROUNDUP FOR NEBRASKA
NATIONAL WEATHER SERVICE OMAHA NE
600 AM CDT THU APR 27 2017

NOTES: SATELLITE DATA IS BEING USED TO AUGMENT CLOUD COVER ABOVE
       12000 FEET.
       "FAIR" INDICATES FEW OR NO CLOUDS BELOW 12,000 FEET WITH NO
       SIGNIFICANT WEATHER AND/OR OBSTRUCTIONS TO VISIBILITY.

  * THESE STATIONS DO NOT REPORT WEATHER SUCH AS RAIN...SNOW OR FOG.

NEZ001>004-019>022-054>056-271200-
NEBRASKA PANHANDLE

CITY           SKY/WX    TMP DP  RH WIND       PRES   REMARKS
SCOTTSBLUFF    CLEAR     37  34  89 E8        29.57F WCI  31
ALLIANCE       CLEAR     29  27  92 E9        29.60S WCI  20
CHADRON        CLOUDY    30  27  88 NE5       29.63S WCI  25
KIMBALL        CLOUDY    39  38  97 CALM      29.58S
SIDNEY         CLOUDY    38  36  92 S7        29.59F WCI  33
$$

NEZ057>060-069>072-079>082-271200-
SOUTHWEST NEBRASKA

CITY           SKY/WX    TMP DP  RH WIND       PRES   REMARKS
NORTH PLATTE   CLOUDY    33  31  92 CALM      29.67S
IMPERIAL       CLOUDY    34  29  82 E8        29.63F WCI  27
LEXINGTON      CLEAR     28  26  93 CALM      29.69S
MCCOOK         CLOUDY    30  28  92 E6        29.66F WCI  24
OGALLALA       CLEAR     34  31  88 E6        29.65R WCI  29
$$

NEZ005>010-023>029-035>040-094-271200-
NORTH CENTRAL NEBRASKA

CITY           SKY/WX    TMP DP  RH WIND       PRES   REMARKS
VALENTINE      CLEAR     22  17  81 SW7       29.67F WCI  13
AINSWORTH      CLEAR     27  26  96 W5        29.66F WCI  21
BROKEN BOW     CLEAR     26  23  88 CALM      29.67F
O`NEILL        CLEAR     29  26  88 NW7       29.66F WCI  22
ORD            CLEAR     28  24  85 CALM      29.67S
THEDFORD       CLEAR     25  24  94 CALM      29.66F
$$

NEZ041-046>049-061>064-073>077-083>087-271200-
SOUTH CENTRAL NEBRASKA

CITY           SKY/WX    TMP DP  RH WIND       PRES   REMARKS
GRAND ISLAND   CLEAR     26  25  96 W6        29.68F WCI  19
AURORA         CLEAR     26  24  93 W3        29.68S
HASTINGS       CLEAR     29  25  85 W6        29.69F WCI  23
HEBRON         CLEAR     29  26  88 W8        29.70S WCI  22
HOLDREGE       MOCLDY    29  26  88 CALM      29.69S
KEARNEY *      CLEAR     28  23  80 NW6       29.69S WCI  22
YORK           CLEAR     27  27 100 NW6       29.68S WCI  20
$$

NEZ011>018-030>034-042>045-271200-
NORTHEAST NEBRASKA

CITY           SKY/WX    TMP DP  RH WIND       PRES   REMARKS
NORFOLK        CLEAR     29  26  89 W8        29.66R WCI  21
ALBION         CLEAR     29  25  86 CALM      29.66F
BLAIR          CLOUDY    35  30  82 NW10      29.66R WCI  27
FREMONT        MOCLDY    35  31  84 NW6       29.67S WCI  30
TEKAMAH        CLOUDY    35  27  72 NW8       29.67S WCI  29
WAYNE          CLOUDY    32  31  96 NW6       29.66R WCI  26
$$

NEZ050>053-065>068-078-088>093-271200-
SOUTHEAST NEBRASKA

CITY           SKY/WX    TMP DP  RH WIND       PRES   REMARKS
LINCOLN        CLEAR     33  28  81 NW5       29.69R WCI  29
OMAHA EPPLEY   CLOUDY    37  27  67 NW14      29.67R WCI  28
BEATRICE       CLEAR     32  29  90 W7        29.69R WCI  26
FALLS CITY     CLOUDY    39  34  82 W5        29.68R
NEBRASKA CITY  CLOUDY    41  30  65 NW9       29.67R
PLATTSMOUTH    CLOUDY    39  30  68 NW7       29.66R WCI  34
$$

NEZ044-045-051>053-067-271200-
OMAHA AREA

CITY           SKY/WX    TMP DP  RH WIND       PRES   REMARKS
OMAHA EPPLEY   CLOUDY    37  27  67 NW14      29.67R WCI  28
BLAIR          CLOUDY    35  30  82 NW10      29.66R WCI  27
FREMONT        MOCLDY    35  31  84 NW6       29.67S WCI  30
MILLARD        CLOUDY    40  32  73 N3        29.67R
PLATTSMOUTH    CLOUDY    39  30  68 NW7       29.66R WCI  34
WAHOO          CLOUDY    37  30  73 NW12      29.67R WCI  30
$$




USA.gov is the U.S. government's official web portal to all federal, state and local government web resources and services.